This demonstration page uses our WeatherBlox Daily Observations layout. Learn more.

Left ArrowRight Arrow

38.80484, -77.04692

Hourly Observations for October 20, 2019

Temp ( °F °C ) Dew Point ( °F °C ) Humidity (%) Winds ( mph kmh ) Pressure ( in mb ) Visibility ( mi km ) Precip ( " mm )
12:52 am 00:52 Mostly Cloudy 57 13.9 50 10 78 78 S 6 9 30.01 1016 10 16 0.00 0.00
1:52 am 01:52 Cloudy 56 13.3 50 10 81 81 S 5 7 30.00 1016 10 16 0.00 0.00
2:52 am 02:52 Cloudy 57 13.9 50 10 78 78 SSE 5 7 29.98 1015 10 16 0.00 0.00
3:52 am 03:52 Cloudy 58 14.4 51 10.6 78 78 S 5 7 29.96 1015 10 16 0.00 0.00
4:52 am 04:52 Cloudy with Light Rain 58 14.4 51 10.6 78 78 Calm 29.96 1014 10 16 0.00 0.00
5:52 am 05:52 Cloudy with Light Rain 57 13.9 52 11.1 83 83 Calm 29.98 1015 8 13 0.03 0.76
6:52 am 06:52 Cloudy with Light Rain 56 13.3 54 12.2 93 93 N 5 7 29.97 1015 6 10 0.08 2.03
7:49 am 07:49 Cloudy with Rain 55 13 54 12 94 94 NNE 8 13 29.97 1015 5 8 0.06 1.52
7:52 am 07:52 Cloudy with Rain 55 12.8 54 12.2 96 96 NE 9 15 29.97 1015 5 8 0.07 1.78
8:36 am 08:36 Cloudy with Rain 55 12.8 54 12.2 96 96 NE 9 15 29.97 1015 4 6 0.07 1.78
8:52 am 08:52 Cloudy with Rain 55 12.8 53 11.7 93 93 NE 10 17 29.97 1015 4 6 0.11 2.79
9:38 am 09:38 Cloudy with Heavy Rain 55 12.8 54 12.2 96 96 NE 10 17 29.98 1015 3 4 0.10 2.54
9:43 am 09:43 Cloudy with Heavy Rain 55 12.8 54 12.2 96 96 NE 9 15 29.98 1015 2 3 0.13 3.30
9:52 am 09:52 Cloudy with Rain 55 12.8 54 12.2 96 96 NNE 10 17 29.98 1015 2 3 0.17 4.32
10:06 am 10:06 Cloudy with Rain 56 13.3 54 12.2 93 93 NNE 12 19 29.97 1015 3 5 0.05 1.27
10:52 am 10:52 Cloudy with Light Rain 56 13.3 55 12.8 97 97 NE 14 22 29.95 1014 5 8 0.13 3.30
11:15 am 11:15 Cloudy with Rain 56 13.3 55 12.8 97 97 NE 16 26 29.95 1014 4 6 0.04 1.02
11:40 am 11:40 Cloudy with Rain 56 13.3 55 12.8 97 97 NNE 17 28 29.94 1014 5 8 0.09 2.29
11:52 am 11:52 Cloudy with Heavy Rain 56 13.3 55 12.8 97 97 NE 18 30 29.93 1014 4 6 0.13 3.30
12:35 pm 12:35 Cloudy with Heavy Rain 56 13.3 54 12.2 93 93 NNE 15 24 29.91 1013 2 3 0.17 4.32
12:42 pm 12:42 Cloudy with Rain 56 13.3 54 12.2 93 93 N 17 28 29.91 1013 2 3 0.22 5.59
12:52 pm 12:52 Cloudy with Rain 56 13.3 54 12.2 93 93 NNE 17 28 29.90 1013 2 3 0.25 6.35
1:29 pm 13:29 Cloudy with Rain 56 13.3 54 12.2 93 93 NE 16 26 29.87 1012 3 5 0.15 3.81
1:52 pm 13:52 Cloudy with Light Rain 57 13.9 55 12.8 93 93 NNE 17 28 29.86 1011 6 10 0.17 4.32
2:07 pm 14:07 Cloudy with Rain 57 13.9 55 12.8 93 93 NNE 18 30 29.85 1011 2 3 0.05 1.27
2:43 pm 14:43 Cloudy with Rain 58 14.4 56 13.3 93 93 NNE 18 30 29.85 1011 2 2 0.14 3.56
2:52 pm 14:52 Cloudy with Rain 58 14.4 56 13.3 93 93 NNE 16 26 29.85 1011 2 3 0.15 3.81
3:25 pm 15:25 Cloudy with Light Rain 58 14.4 56 13.3 93 93 N 18 30 29.85 1011 2 3 0.06 1.52
3:52 pm 15:52 Cloudy with Light Rain 58 14.4 56 13.3 93 93 N 17 28 29.86 1011 3 4 0.08 2.03
4:10 pm 16:10 Cloudy with Rain 58 14.4 56 13.3 93 93 N 17 28 29.87 1012 2 3 0.03 0.76
4:36 pm 16:36 Cloudy with Rain 58 14.4 56 13.3 93 93 N 18 30 29.87 1012 2 3 0.09 2.29
4:45 pm 16:45 Cloudy with Light Rain 58 14.4 56 13.3 93 93 N 18 30 29.87 1012 3 5 0.10 2.54
4:52 pm 16:52 Cloudy with Light Rain 58 14.4 56 13.3 93 93 N 15 24 29.87 1012 3 5 0.10 2.54
5:37 pm 17:37 Cloudy with Light Rain 57 13.9 56 13.3 96 96 N 15 24 29.88 1012 3 4 0.04 1.02
5:40 pm 17:40 Cloudy with Light Rain 57 13.9 56 13.3 96 96 N 16 26 29.88 1012 3 5 0.05 1.27
5:52 pm 17:52 Cloudy with Rain 57 13.9 56 13.3 96 96 N 17 28 29.88 1012 3 4 0.06 1.52
6:12 pm 18:12 Cloudy with Light Rain 57 13.9 56 13.3 96 96 N 14 22 29.89 1012 3 5 0.04 1.02
6:43 pm 18:43 Cloudy with Light Rain 57 13.9 55 12.8 93 93 N 15 24 29.90 1013 5 8 0.06 1.52
6:52 pm 18:52 Cloudy with Light Rain 57 13.9 55 12.8 93 93 N 16 26 29.90 1013 10 16 0.07 1.78
6:55 pm 18:55 Cloudy with Light Rain 57 13.9 55 12.8 93 93 N 15 24 29.90 1013 10 16 0.00 0.00
7:52 pm 19:52 Cloudy 57 13.9 55 12.8 93 93 N 15 24 29.92 1013 10 16 0.00 0.00
8:52 pm 20:52 Cloudy 57 13.9 54 12.2 90 90 N 14 22 29.94 1014 10 16 0.00 0.00
9:52 pm 21:52 Cloudy 57 13.9 54 12.2 90 90 N 13 20 29.95 1014 10 16 0.00 0.00
10:52 pm 22:52 Cloudy 57 13.9 54 12.2 90 90 N 12 19 29.97 1015 10 16 0.00 0.00
11:52 pm 23:52 Cloudy 56 13.3 54 12.2 93 93 N 12 19 29.97 1015 10 16 0.00 0.00

Powered by AerisWeather